owner,sensor,date,latitude,longitude,air_pressure(mBar),qcFlag 
TABS,ioos:station:wmo:42046:1,2012-02-01T00:00:00Z,27.8903,-94.0367,1019.54,11111222 
TABS,ioos:station:wmo:42046:1,2012-02-01T00:30:00Z,27.8903,-94.0367,1019.68,11111222 
TABS,ioos:station:wmo:42046:1,2012-02-01T01:00:00Z,27.8903,-94.0367,1019.84,11111222 
TABS,ioos:station:wmo:42046:1,2012-02-01T01:30:00Z,27.8903,-94.0367,1020.01,11111222 
TABS,ioos:station:wmo:42046:1,2012-02-01T02:00:00Z,27.8903,-94.0367,1020.42,11111222 
TABS,ioos:station:wmo:42046:1,2012-02-01T02:30:00Z,27.8903,-94.0367,1020.32,11111222 
TABS,ioos:station:wmo:42046:1,2012-02-01T03:00:00Z,27.8903,-94.0367,1020.17,11111222 
TABS,ioos:station:wmo:42046:1,2012-02-01T03:30:00Z,27.8903,-94.0367,1020.29,11111222 
TABS,ioos:station:wmo:42046:1,2012-02-01T04:00:00Z,27.8903,-94.0367,1020.12,11111222 
TABS,ioos:station:wmo:42046:1,2012-02-01T04:30:00Z,27.8903,-94.0367,1020.38,11111222 
TABS,ioos:station:wmo:42046:1,2012-02-01T05:00:00Z,27.8903,-94.0367,1020.33,11111222 
TABS,ioos:station:wmo:42046:1,2012-02-01T05:30:00Z,27.8903,-94.0367,1020.62,11111222 
TABS,ioos:station:wmo:42046:1,2012-02-01T06:00:00Z,27.8903,-94.0367,1020.37,11111222 
TABS,ioos:station:wmo:42046:1,2012-02-01T06:30:00Z,27.8903,-94.0367,1019.99,11111222 
TABS,ioos:station:wmo:42046:1,2012-02-01T07:00:00Z,27.8903,-94.0367,1019.92,11111222 
TABS,ioos:station:wmo:42046:1,2012-02-01T07:30:00Z,27.8903,-94.0367,1019.71,11111222 
TABS,ioos:station:wmo:42046:1,2012-02-01T08:00:00Z,27.8903,-94.0367,1019.64,11111222 
TABS,ioos:station:wmo:42046:1,2012-02-01T08:30:00Z,27.8903,-94.0367,1019.23,11111222 
TABS,ioos:station:wmo:42046:1,2012-02-01T09:00:00Z,27.8903,-94.0367,1019.07,11111222 
TABS,ioos:station:wmo:42046:1,2012-02-01T09:30:00Z,27.8903,-94.0367,1019.02,11111222 
TABS,ioos:station:wmo:42046:1,2012-02-01T10:00:00Z,27.8903,-94.0367,1019.09,11111222 
TABS,ioos:station:wmo:42046:1,2012-02-01T10:30:00Z,27.8903,-94.0367,1019.1,11111222 
TABS,ioos:station:wmo:42046:1,2012-02-01T11:00:00Z,27.8903,-94.0367,1019.16,11111222 
TABS,ioos:station:wmo:42046:1,2012-02-01T11:30:00Z,27.8903,-94.0367,1019.17,11111222 
TABS,ioos:station:wmo:42046:1,2012-02-01T12:00:00Z,27.8903,-94.0367,1019.32,11111222 
TABS,ioos:station:wmo:42046:1,2012-02-01T12:30:00Z,27.8903,-94.0367,1019.45,11111222 
TABS,ioos:station:wmo:42046:1,2012-02-01T13:00:00Z,27.8903,-94.0367,1019.53,11111222 
TABS,ioos:station:wmo:42046:1,2012-02-01T13:30:00Z,27.8903,-94.0367,1019.63,11111222 
TABS,ioos:station:wmo:42046:1,2012-02-01T14:00:00Z,27.8903,-94.0367,1019.77,11111222 
TABS,ioos:station:wmo:42046:1,2012-02-01T14:30:00Z,27.8903,-94.0367,1020.09,11111222 
TABS,ioos:station:wmo:42046:1,2012-02-01T15:00:00Z,27.8903,-94.0367,1020.51,11111222 
TABS,ioos:station:wmo:42046:1,2012-02-01T15:30:00Z,27.8903,-94.0367,1020.87,11111222 
TABS,ioos:station:wmo:42046:1,2012-02-01T16:00:00Z,27.8903,-94.0367,1020.9,11111222 
TABS,ioos:station:wmo:42046:1,2012-02-01T16:30:00Z,27.8903,-94.0367,1020.76,11111222 
TABS,ioos:station:wmo:42046:1,2012-02-01T17:00:00Z,27.8903,-94.0367,1020.78,11111222 
TABS,ioos:station:wmo:42046:1,2012-02-01T17:30:00Z,27.8903,-94.0367,1020.61,11111222 
TABS,ioos:station:wmo:42046:1,2012-02-01T18:00:00Z,27.8903,-94.0367,1020.19,11111222 
TABS,ioos:station:wmo:42046:1,2012-02-01T18:30:00Z,27.8903,-94.0367,1019.6,11111222 
TABS,ioos:station:wmo:42046:1,2012-02-01T19:00:00Z,27.8903,-94.0367,1018.85,11111222 
TABS,ioos:station:wmo:42046:1,2012-02-01T19:30:00Z,27.8903,-94.0367,1018.31,11111222 
TABS,ioos:station:wmo:42046:1,2012-02-01T20:00:00Z,27.8903,-94.0367,1018.06,11111222 
TABS,ioos:station:wmo:42046:1,2012-02-01T20:30:00Z,27.8903,-94.0367,1017.9,11111222 
TABS,ioos:station:wmo:42046:1,2012-02-01T21:00:00Z,27.8903,-94.0367,1017.74,11111222 
TABS,ioos:station:wmo:42046:1,2012-02-01T21:30:00Z,27.8903,-94.0367,1017.73,11111222 
TABS,ioos:station:wmo:42046:1,2012-02-01T22:00:00Z,27.8903,-94.0367,1018.13,11111222 
TABS,ioos:station:wmo:42046:1,2012-02-01T22:30:00Z,27.8903,-94.0367,1018.48,11111222 
TABS,ioos:station:wmo:42046:1,2012-02-01T23:00:00Z,27.8903,-94.0367,1018.74,11111222 
TABS,ioos:station:wmo:42046:1,2012-02-01T23:30:00Z,27.8903,-94.0367,1018.79,11111222 
TABS,ioos:station:wmo:42046:1,2012-02-02T00:00:00Z,27.8903,-94.0367,1018.95,11111222 
TABS,ioos:station:wmo:42046:1,2012-02-02T00:30:00Z,27.8903,-94.0367,1019.11,11111222 
TABS,ioos:station:wmo:42046:1,2012-02-02T01:00:00Z,27.8903,-94.0367,1019.53,11111222 
TABS,ioos:station:wmo:42046:1,2012-02-02T01:30:00Z,27.8903,-94.0367,1019.78,11111222 
TABS,ioos:station:wmo:42046:1,2012-02-02T02:00:00Z,27.8903,-94.0367,1020.27,11111222 
TABS,ioos:station:wmo:42046:1,2012-02-02T02:30:00Z,27.8903,-94.0367,1020.29,11111222 
TABS,ioos:station:wmo:42046:1,2012-02-02T03:00:00Z,27.8903,-94.0367,1020.48,11111222 
TABS,ioos:station:wmo:42046:1,2012-02-02T03:30:00Z,27.8903,-94.0367,1020.34,11111222 
TABS,ioos:station:wmo:42046:1,2012-02-02T04:00:00Z,27.8903,-94.0367,1020.07,11111222 
TABS,ioos:station:wmo:42046:1,2012-02-02T04:30:00Z,27.8903,-94.0367,1019.97,11111222 
TABS,ioos:station:wmo:42046:1,2012-02-02T05:00:00Z,27.8903,-94.0367,1019.9,11111222 
TABS,ioos:station:wmo:42046:1,2012-02-02T05:30:00Z,27.8903,-94.0367,1019.56,11111222 
TABS,ioos:station:wmo:42046:1,2012-02-02T06:00:00Z,27.8903,-94.0367,1019.29,11111222 
TABS,ioos:station:wmo:42046:1,2012-02-02T06:30:00Z,27.8903,-94.0367,1019.13,11111222 
TABS,ioos:station:wmo:42046:1,2012-02-02T07:00:00Z,27.8903,-94.0367,1019.06,11111222 
TABS,ioos:station:wmo:42046:1,2012-02-02T07:30:00Z,27.8903,-94.0367,1018.63,11111222 
TABS,ioos:station:wmo:42046:1,2012-02-02T08:00:00Z,27.8903,-94.0367,1018.67,11111222 
TABS,ioos:station:wmo:42046:1,2012-02-02T08:30:00Z,27.8903,-94.0367,1018.51,11111222 
TABS,ioos:station:wmo:42046:1,2012-02-02T09:00:00Z,27.8903,-94.0367,1018.58,11111222 
TABS,ioos:station:wmo:42046:1,2012-02-02T09:30:00Z,27.8903,-94.0367,1018.64,11111222 
TABS,ioos:station:wmo:42046:1,2012-02-02T10:00:00Z,27.8903,-94.0367,1018.57,11111222 
TABS,ioos:station:wmo:42046:1,2012-02-02T10:30:00Z,27.8903,-94.0367,1018.82,11111222 
TABS,ioos:station:wmo:42046:1,2012-02-02T11:00:00Z,27.8903,-94.0367,1018.91,11111222 
TABS,ioos:station:wmo:42046:1,2012-02-02T11:30:00Z,27.8903,-94.0367,1019.13,11111222 
TABS,ioos:station:wmo:42046:1,2012-02-02T12:00:00Z,27.8903,-94.0367,1019.32,11111222 
TABS,ioos:station:wmo:42046:1,2012-02-02T12:30:00Z,27.8903,-94.0367,1019.33,11111222 
TABS,ioos:station:wmo:42046:1,2012-02-02T13:00:00Z,27.8903,-94.0367,1019.45,11111222 
TABS,ioos:station:wmo:42046:1,2012-02-02T13:30:00Z,27.8903,-94.0367,1019.72,11111222 
TABS,ioos:station:wmo:42046:1,2012-02-02T14:00:00Z,27.8903,-94.0367,1019.91,11111222 
TABS,ioos:station:wmo:42046:1,2012-02-02T14:30:00Z,27.8903,-94.0367,1019.99,11111222 
TABS,ioos:station:wmo:42046:1,2012-02-02T15:00:00Z,27.8903,-94.0367,1020.18,11111222 
TABS,ioos:station:wmo:42046:1,2012-02-02T15:30:00Z,27.8903,-94.0367,1020.24,11111222 
TABS,ioos:station:wmo:42046:1,2012-02-02T16:00:00Z,27.8903,-94.0367,1020.2,11111222 
TABS,ioos:station:wmo:42046:1,2012-02-02T16:30:00Z,27.8903,-94.0367,1020.03,11111222 
TABS,ioos:station:wmo:42046:1,2012-02-02T17:00:00Z,27.8903,-94.0367,1019.92,11111222 
TABS,ioos:station:wmo:42046:1,2012-02-02T17:30:00Z,27.8903,-94.0367,1019.28,11111222 
TABS,ioos:station:wmo:42046:1,2012-02-02T18:00:00Z,27.8903,-94.0367,1018.73,11111222 
TABS,ioos:station:wmo:42046:1,2012-02-02T18:30:00Z,27.8903,-94.0367,1018.24,11111222 
TABS,ioos:station:wmo:42046:1,2012-02-02T19:00:00Z,27.8903,-94.0367,1017.55,11111222 
TABS,ioos:station:wmo:42046:1,2012-02-02T19:30:00Z,27.8903,-94.0367,1017.24,11111222 
TABS,ioos:station:wmo:42046:1,2012-02-02T20:00:00Z,27.8903,-94.0367,1016.93,11111222 
TABS,ioos:station:wmo:42046:1,2012-02-02T20:30:00Z,27.8903,-94.0367,1016.67,11111222 
TABS,ioos:station:wmo:42046:1,2012-02-02T21:00:00Z,27.8903,-94.0367,1016.51,11111222 
TABS,ioos:station:wmo:42046:1,2012-02-02T21:30:00Z,27.8903,-94.0367,1016.43,11111222 
TABS,ioos:station:wmo:42046:1,2012-02-02T22:00:00Z,27.8903,-94.0367,1016.6,11111222 
TABS,ioos:station:wmo:42046:1,2012-02-02T22:30:00Z,27.8903,-94.0367,1016.33,11111222 
TABS,ioos:station:wmo:42046:1,2012-02-02T23:00:00Z,27.8903,-94.0367,1016.12,11111222 
TABS,ioos:station:wmo:42046:1,2012-02-02T23:30:00Z,27.8903,-94.0367,1016.17,11111222 
TABS,ioos:station:wmo:42046:1,2012-02-03T00:00:00Z,27.8903,-94.0367,1016.43,11111222 
TABS,ioos:station:wmo:42046:1,2012-02-03T00:30:00Z,27.8903,-94.0367,1016.55,11111222 
TABS,ioos:station:wmo:42046:1,2012-02-03T01:00:00Z,27.8903,-94.0367,1016.9,11111222 
TABS,ioos:station:wmo:42046:1,2012-02-03T01:30:00Z,27.8903,-94.0367,1016.83,11111222 
TABS,ioos:station:wmo:42046:1,2012-02-03T02:00:00Z,27.8903,-94.0367,1017.33,11111222 
TABS,ioos:station:wmo:42046:1,2012-02-03T02:30:00Z,27.8903,-94.0367,1017.36,11111222 
TABS,ioos:station:wmo:42046:1,2012-02-03T03:00:00Z,27.8903,-94.0367,1017.12,11111222 
TABS,ioos:station:wmo:42046:1,2012-02-03T03:30:00Z,27.8903,-94.0367,1017.24,11111222 
TABS,ioos:station:wmo:42046:1,2012-02-03T04:00:00Z,27.8903,-94.0367,1017.1,11111222 
TABS,ioos:station:wmo:42046:1,2012-02-03T04:30:00Z,27.8903,-94.0367,1017.13,11111222 
TABS,ioos:station:wmo:42046:1,2012-02-03T05:00:00Z,27.8903,-94.0367,1016.77,11111222 
TABS,ioos:station:wmo:42046:1,2012-02-03T05:30:00Z,27.8903,-94.0367,1016.77,11111222 
TABS,ioos:station:wmo:42046:1,2012-02-03T06:00:00Z,27.8903,-94.0367,1016.27,11111222 
TABS,ioos:station:wmo:42046:1,2012-02-03T06:30:00Z,27.8903,-94.0367,1016.12,11111222 
TABS,ioos:station:wmo:42046:1,2012-02-03T07:00:00Z,27.8903,-94.0367,1016.52,11111222 
TABS,ioos:station:wmo:42046:1,2012-02-03T07:30:00Z,27.8903,-94.0367,1016.59,11111222 
TABS,ioos:station:wmo:42046:1,2012-02-03T08:00:00Z,27.8903,-94.0367,1016.58,11111222 
TABS,ioos:station:wmo:42046:1,2012-02-03T08:30:00Z,27.8903,-94.0367,1015.96,11111222 
TABS,ioos:station:wmo:42046:1,2012-02-03T09:00:00Z,27.8903,-94.0367,1016.04,11111222 
TABS,ioos:station:wmo:42046:1,2012-02-03T09:30:00Z,27.8903,-94.0367,1015.94,11111222 
TABS,ioos:station:wmo:42046:1,2012-02-03T10:00:00Z,27.8903,-94.0367,1015.87,11111222 
TABS,ioos:station:wmo:42046:1,2012-02-03T10:30:00Z,27.8903,-94.0367,1015.53,11111222 
TABS,ioos:station:wmo:42046:1,2012-02-03T11:00:00Z,27.8903,-94.0367,1015.75,11111222 
TABS,ioos:station:wmo:42046:1,2012-02-03T11:30:00Z,27.8903,-94.0367,1016.05,11111222 
TABS,ioos:station:wmo:42046:1,2012-02-03T12:00:00Z,27.8903,-94.0367,1016.31,11111222 
TABS,ioos:station:wmo:42046:1,2012-02-03T12:30:00Z,27.8903,-94.0367,1016.13,11111222 
TABS,ioos:station:wmo:42046:1,2012-02-03T13:00:00Z,27.8903,-94.0367,1016.52,11111222 
TABS,ioos:station:wmo:42046:1,2012-02-03T13:30:00Z,27.8903,-94.0367,1016.88,11111222 
TABS,ioos:station:wmo:42046:1,2012-02-03T14:00:00Z,27.8903,-94.0367,1017.26,11111222 
TABS,ioos:station:wmo:42046:1,2012-02-03T14:30:00Z,27.8903,-94.0367,1017.48,11111222 
TABS,ioos:station:wmo:42046:1,2012-02-03T15:00:00Z,27.8903,-94.0367,1018.08,11111222 
TABS,ioos:station:wmo:42046:1,2012-02-03T15:30:00Z,27.8903,-94.0367,1018.48,11111222 
TABS,ioos:station:wmo:42046:1,2012-02-03T16:00:00Z,27.8903,-94.0367,1018.55,11111222 
TABS,ioos:station:wmo:42046:1,2012-02-03T16:30:00Z,27.8903,-94.0367,1018.49,11111222 
TABS,ioos:station:wmo:42046:1,2012-02-03T17:00:00Z,27.8903,-94.0367,1018.36,11111222 
TABS,ioos:station:wmo:42046:1,2012-02-03T17:30:00Z,27.8903,-94.0367,1018.23,11111222 
TABS,ioos:station:wmo:42046:1,2012-02-03T18:00:00Z,27.8903,-94.0367,1017.66,11111222 
TABS,ioos:station:wmo:42046:1,2012-02-03T18:30:00Z,27.8903,-94.0367,1017.06,11111222 
TABS,ioos:station:wmo:42046:1,2012-02-03T19:00:00Z,27.8903,-94.0367,1016.28,11111222 
TABS,ioos:station:wmo:42046:1,2012-02-03T19:30:00Z,27.8903,-94.0367,1015.87,11111222 
TABS,ioos:station:wmo:42046:1,2012-02-03T20:00:00Z,27.8903,-94.0367,1015.38,11111222 
TABS,ioos:station:wmo:42046:1,2012-02-03T20:30:00Z,27.8903,-94.0367,1014.84,11111222 
TABS,ioos:station:wmo:42046:1,2012-02-03T21:00:00Z,27.8903,-94.0367,1014.66,11111222 
TABS,ioos:station:wmo:42046:1,2012-02-03T21:30:00Z,27.8903,-94.0367,1014.73,11111222 
TABS,ioos:station:wmo:42046:1,2012-02-03T22:00:00Z,27.8903,-94.0367,1014.9,11111222 
TABS,ioos:station:wmo:42046:1,2012-02-03T22:30:00Z,27.8903,-94.0367,1015.14,11111222 
TABS,ioos:station:wmo:42046:1,2012-02-03T23:00:00Z,27.8903,-94.0367,1015.36,11111222 
TABS,ioos:station:wmo:42046:1,2012-02-03T23:30:00Z,27.8903,-94.0367,1015.43,11111222 
TABS,ioos:station:wmo:42046:1,2012-02-04T00:00:00Z,27.8903,-94.0367,1015.57,11111222 
TABS,ioos:station:wmo:42046:1,2012-02-04T00:30:00Z,27.8903,-94.0367,1016.0,11111222 
TABS,ioos:station:wmo:42046:1,2012-02-04T01:00:00Z,27.8903,-94.0367,1015.98,11111222 
TABS,ioos:station:wmo:42046:1,2012-02-04T01:30:00Z,27.8903,-94.0367,1016.28,11111222 
TABS,ioos:station:wmo:42046:1,2012-02-04T02:00:00Z,27.8903,-94.0367,1016.32,11111222 
TABS,ioos:station:wmo:42046:1,2012-02-04T02:30:00Z,27.8903,-94.0367,1016.53,11111222 
TABS,ioos:station:wmo:42046:1,2012-02-04T03:00:00Z,27.8903,-94.0367,1016.48,11111222 
TABS,ioos:station:wmo:42046:1,2012-02-04T03:30:00Z,27.8903,-94.0367,1016.68,11111222 
TABS,ioos:station:wmo:42046:1,2012-02-04T04:00:00Z,27.8903,-94.0367,1017.39,11111222 
TABS,ioos:station:wmo:42046:1,2012-02-04T04:30:00Z,27.8903,-94.0367,1017.55,11111222 
TABS,ioos:station:wmo:42046:1,2012-02-04T05:00:00Z,27.8903,-94.0367,1017.42,11111222 
TABS,ioos:station:wmo:42046:1,2012-02-04T05:30:00Z,27.8903,-94.0367,1017.51,11111222 
TABS,ioos:station:wmo:42046:1,2012-02-04T06:00:00Z,27.8903,-94.0367,1017.23,11111222 
TABS,ioos:station:wmo:42046:1,2012-02-04T06:30:00Z,27.8903,-94.0367,1016.68,11111222 
TABS,ioos:station:wmo:42046:1,2012-02-04T07:00:00Z,27.8903,-94.0367,1016.78,11111222 
TABS,ioos:station:wmo:42046:1,2012-02-04T07:30:00Z,27.8903,-94.0367,1016.5,11111222 
TABS,ioos:station:wmo:42046:1,2012-02-04T08:00:00Z,27.8903,-94.0367,1016.13,11111222 
TABS,ioos:station:wmo:42046:1,2012-02-04T08:30:00Z,27.8903,-94.0367,1016.41,11111222 
TABS,ioos:station:wmo:42046:1,2012-02-04T09:00:00Z,27.8903,-94.0367,1016.31,11111222 
TABS,ioos:station:wmo:42046:1,2012-02-04T09:30:00Z,27.8903,-94.0367,1015.87,11111222 
TABS,ioos:station:wmo:42046:1,2012-02-04T10:00:00Z,27.8903,-94.0367,1015.5,11111222 
TABS,ioos:station:wmo:42046:1,2012-02-04T10:30:00Z,27.8903,-94.0367,1015.63,11111222 
TABS,ioos:station:wmo:42046:1,2012-02-04T11:00:00Z,27.8903,-94.0367,1015.64,11111222 
TABS,ioos:station:wmo:42046:1,2012-02-04T11:30:00Z,27.8903,-94.0367,1015.85,11111222 
TABS,ioos:station:wmo:42046:1,2012-02-04T12:00:00Z,27.8903,-94.0367,1016.4,11111222 
TABS,ioos:station:wmo:42046:1,2012-02-04T12:30:00Z,27.8903,-94.0367,1016.36,11111222 
TABS,ioos:station:wmo:42046:1,2012-02-04T13:00:00Z,27.8903,-94.0367,1017.03,11111222 
TABS,ioos:station:wmo:42046:1,2012-02-04T13:30:00Z,27.8903,-94.0367,1017.74,11111222 
TABS,ioos:station:wmo:42046:1,2012-02-04T14:00:00Z,27.8903,-94.0367,1017.91,11111222 
TABS,ioos:station:wmo:42046:1,2012-02-04T14:30:00Z,27.8903,-94.0367,1018.21,11111222 
TABS,ioos:station:wmo:42046:1,2012-02-04T15:00:00Z,27.8903,-94.0367,1018.17,11111222 
TABS,ioos:station:wmo:42046:1,2012-02-04T15:30:00Z,27.8903,-94.0367,1018.53,11111222 
TABS,ioos:station:wmo:42046:1,2012-02-04T16:00:00Z,27.8903,-94.0367,1018.38,11111222 
TABS,ioos:station:wmo:42046:1,2012-02-04T16:30:00Z,27.8903,-94.0367,1018.71,11111222 
TABS,ioos:station:wmo:42046:1,2012-02-04T17:00:00Z,27.8903,-94.0367,1018.69,11111222 
TABS,ioos:station:wmo:42046:1,2012-02-04T17:30:00Z,27.8903,-94.0367,1018.51,11111222 
TABS,ioos:station:wmo:42046:1,2012-02-04T18:00:00Z,27.8903,-94.0367,1018.13,11111222 
TABS,ioos:station:wmo:42046:1,2012-02-04T18:30:00Z,27.8903,-94.0367,1017.8,11111222 
TABS,ioos:station:wmo:42046:1,2012-02-04T19:00:00Z,27.8903,-94.0367,1017.32,11111222 
TABS,ioos:station:wmo:42046:1,2012-02-04T19:30:00Z,27.8903,-94.0367,1017.03,11111222 
TABS,ioos:station:wmo:42046:1,2012-02-04T20:00:00Z,27.8903,-94.0367,1016.95,11111222 
TABS,ioos:station:wmo:42046:1,2012-02-04T20:30:00Z,27.8903,-94.0367,1017.07,11111222 
TABS,ioos:station:wmo:42046:1,2012-02-04T21:00:00Z,27.8903,-94.0367,1017.09,11111222 
TABS,ioos:station:wmo:42046:1,2012-02-04T21:30:00Z,27.8903,-94.0367,1016.88,11111222 
TABS,ioos:station:wmo:42046:1,2012-02-04T22:00:00Z,27.8903,-94.0367,1016.9,11111222 
TABS,ioos:station:wmo:42046:1,2012-02-04T22:30:00Z,27.8903,-94.0367,1016.65,11111222 
TABS,ioos:station:wmo:42046:1,2012-02-04T23:00:00Z,27.8903,-94.0367,1017.09,11111222 
TABS,ioos:station:wmo:42046:1,2012-02-04T23:30:00Z,27.8903,-94.0367,1017.22,11111222 
TABS,ioos:station:wmo:42046:1,2012-02-05T00:00:00Z,27.8903,-94.0367,1017.19,11111222 
TABS,ioos:station:wmo:42046:1,2012-02-05T00:30:00Z,27.8903,-94.0367,1017.82,11111222 
TABS,ioos:station:wmo:42046:1,2012-02-05T01:00:00Z,27.8903,-94.0367,1017.65,11111222 
TABS,ioos:station:wmo:42046:1,2012-02-05T01:30:00Z,27.8903,-94.0367,1018.29,11111222 
TABS,ioos:station:wmo:42046:1,2012-02-05T02:00:00Z,27.8903,-94.0367,1018.45,11111222 
TABS,ioos:station:wmo:42046:1,2012-02-05T02:30:00Z,27.8903,-94.0367,1018.39,11111222 
TABS,ioos:station:wmo:42046:1,2012-02-05T03:00:00Z,27.8903,-94.0367,1018.62,11111222 
TABS,ioos:station:wmo:42046:1,2012-02-05T03:30:00Z,27.8903,-94.0367,1018.45,11111222 
TABS,ioos:station:wmo:42046:1,2012-02-05T04:00:00Z,27.8903,-94.0367,1018.6,11111222 
TABS,ioos:station:wmo:42046:1,2012-02-05T04:30:00Z,27.8903,-94.0367,1018.98,11111222 
TABS,ioos:station:wmo:42046:1,2012-02-05T05:00:00Z,27.8903,-94.0367,1018.74,11111222 
TABS,ioos:station:wmo:42046:1,2012-02-05T05:30:00Z,27.8903,-94.0367,1018.91,11111222 
TABS,ioos:station:wmo:42046:1,2012-02-05T06:00:00Z,27.8903,-94.0367,1018.62,11111222 
TABS,ioos:station:wmo:42046:1,2012-02-05T06:30:00Z,27.8903,-94.0367,1019.13,11111222 
TABS,ioos:station:wmo:42046:1,2012-02-05T07:00:00Z,27.8903,-94.0367,1018.65,11111222 
TABS,ioos:station:wmo:42046:1,2012-02-05T07:30:00Z,27.8903,-94.0367,1018.24,11111222 
TABS,ioos:station:wmo:42046:1,2012-02-05T08:00:00Z,27.8903,-94.0367,1018.13,11111222 
TABS,ioos:station:wmo:42046:1,2012-02-05T08:30:00Z,27.8903,-94.0367,1018.29,11111222 
TABS,ioos:station:wmo:42046:1,2012-02-05T09:00:00Z,27.8903,-94.0367,1017.76,11111222 
TABS,ioos:station:wmo:42046:1,2012-02-05T09:30:00Z,27.8903,-94.0367,1018.06,11111222 
TABS,ioos:station:wmo:42046:1,2012-02-05T10:00:00Z,27.8903,-94.0367,1018.2,11111222 
TABS,ioos:station:wmo:42046:1,2012-02-05T10:30:00Z,27.8903,-94.0367,1018.4,11111222 
TABS,ioos:station:wmo:42046:1,2012-02-05T11:00:00Z,27.8903,-94.0367,1019.04,11111222 
TABS,ioos:station:wmo:42046:1,2012-02-05T11:30:00Z,27.8903,-94.0367,1018.7,11111222 
TABS,ioos:station:wmo:42046:1,2012-02-05T12:00:00Z,27.8903,-94.0367,1019.03,11111222 
TABS,ioos:station:wmo:42046:1,2012-02-05T12:30:00Z,27.8903,-94.0367,1019.13,11111222 
TABS,ioos:station:wmo:42046:1,2012-02-05T13:00:00Z,27.8903,-94.0367,1019.63,11111222 
TABS,ioos:station:wmo:42046:1,2012-02-05T13:30:00Z,27.8903,-94.0367,1020.01,11111222 
TABS,ioos:station:wmo:42046:1,2012-02-05T14:00:00Z,27.8903,-94.0367,1020.63,11111222 
TABS,ioos:station:wmo:42046:1,2012-02-05T14:30:00Z,27.8903,-94.0367,1021.59,11111222 
TABS,ioos:station:wmo:42046:1,2012-02-05T15:00:00Z,27.8903,-94.0367,1022.36,11111222 
TABS,ioos:station:wmo:42046:1,2012-02-05T15:30:00Z,27.8903,-94.0367,1023.11,11111222 
TABS,ioos:station:wmo:42046:1,2012-02-05T16:00:00Z,27.8903,-94.0367,1022.99,11111222 
TABS,ioos:station:wmo:42046:1,2012-02-05T16:30:00Z,27.8903,-94.0367,1022.56,11111222 
TABS,ioos:station:wmo:42046:1,2012-02-05T17:00:00Z,27.8903,-94.0367,1022.55,11111222 
TABS,ioos:station:wmo:42046:1,2012-02-05T17:30:00Z,27.8903,-94.0367,1022.25,11111222 
TABS,ioos:station:wmo:42046:1,2012-02-05T18:00:00Z,27.8903,-94.0367,1021.85,11111222 
TABS,ioos:station:wmo:42046:1,2012-02-05T18:30:00Z,27.8903,-94.0367,1021.26,11111222 
TABS,ioos:station:wmo:42046:1,2012-02-05T19:00:00Z,27.8903,-94.0367,1020.93,11111222 
TABS,ioos:station:wmo:42046:1,2012-02-05T19:30:00Z,27.8903,-94.0367,1019.76,11111222 
TABS,ioos:station:wmo:42046:1,2012-02-05T20:00:00Z,27.8903,-94.0367,1019.68,11111222 
TABS,ioos:station:wmo:42046:1,2012-02-05T20:30:00Z,27.8903,-94.0367,1019.96,11111222 
TABS,ioos:station:wmo:42046:1,2012-02-05T21:00:00Z,27.8903,-94.0367,1020.1,11111222 
TABS,ioos:station:wmo:42046:1,2012-02-05T21:30:00Z,27.8903,-94.0367,1020.14,11111222 
TABS,ioos:station:wmo:42046:1,2012-02-05T22:00:00Z,27.8903,-94.0367,1020.59,11111222 
TABS,ioos:station:wmo:42046:1,2012-02-05T22:30:00Z,27.8903,-94.0367,1020.79,11111222 
TABS,ioos:station:wmo:42046:1,2012-02-05T23:00:00Z,27.8903,-94.0367,1020.87,11111222 
TABS,ioos:station:wmo:42046:1,2012-02-05T23:30:00Z,27.8903,-94.0367,1020.76,11111222 
TABS,ioos:station:wmo:42046:1,2012-02-06T00:00:00Z,27.8903,-94.0367,1021.23,11111222 
TABS,ioos:station:wmo:42046:1,2012-02-06T00:30:00Z,27.8903,-94.0367,1021.27,11111222 
TABS,ioos:station:wmo:42046:1,2012-02-06T01:00:00Z,27.8903,-94.0367,1021.33,11111222 
TABS,ioos:station:wmo:42046:1,2012-02-06T01:30:00Z,27.8903,-94.0367,1021.73,11111222 
TABS,ioos:station:wmo:42046:1,2012-02-06T02:00:00Z,27.8903,-94.0367,1022.12,11111222 
TABS,ioos:station:wmo:42046:1,2012-02-06T02:30:00Z,27.8903,-94.0367,1022.15,11111222 
TABS,ioos:station:wmo:42046:1,2012-02-06T03:00:00Z,27.8903,-94.0367,1022.51,11111222 
TABS,ioos:station:wmo:42046:1,2012-02-06T03:30:00Z,27.8903,-94.0367,1022.66,11111222 
TABS,ioos:station:wmo:42046:1,2012-02-06T04:00:00Z,27.8903,-94.0367,1023.02,11111222 
TABS,ioos:station:wmo:42046:1,2012-02-06T04:30:00Z,27.8903,-94.0367,1022.82,11111222 
TABS,ioos:station:wmo:42046:1,2012-02-06T05:00:00Z,27.8903,-94.0367,1022.97,11111222 
TABS,ioos:station:wmo:42046:1,2012-02-06T05:30:00Z,27.8903,-94.0367,1022.72,11111222 
TABS,ioos:station:wmo:42046:1,2012-02-06T06:00:00Z,27.8903,-94.0367,1022.5,11111222 
TABS,ioos:station:wmo:42046:1,2012-02-06T06:30:00Z,27.8903,-94.0367,1022.19,11111222 
TABS,ioos:station:wmo:42046:1,2012-02-06T07:00:00Z,27.8903,-94.0367,1022.25,11111222 
TABS,ioos:station:wmo:42046:1,2012-02-06T07:30:00Z,27.8903,-94.0367,1022.25,11111222 
TABS,ioos:station:wmo:42046:1,2012-02-06T08:00:00Z,27.8903,-94.0367,1022.09,11111222 
TABS,ioos:station:wmo:42046:1,2012-02-06T08:30:00Z,27.8903,-94.0367,1022.11,11111222 
TABS,ioos:station:wmo:42046:1,2012-02-06T09:00:00Z,27.8903,-94.0367,1022.43,11111222 
TABS,ioos:station:wmo:42046:1,2012-02-06T09:30:00Z,27.8903,-94.0367,1022.23,11111222 
TABS,ioos:station:wmo:42046:1,2012-02-06T10:00:00Z,27.8903,-94.0367,1022.07,11111222 
TABS,ioos:station:wmo:42046:1,2012-02-06T10:30:00Z,27.8903,-94.0367,1022.29,11111222 
TABS,ioos:station:wmo:42046:1,2012-02-06T11:00:00Z,27.8903,-94.0367,1021.94,11111222 
TABS,ioos:station:wmo:42046:1,2012-02-06T11:30:00Z,27.8903,-94.0367,1022.1,11111222 
TABS,ioos:station:wmo:42046:1,2012-02-06T12:00:00Z,27.8903,-94.0367,1022.62,11111222 
TABS,ioos:station:wmo:42046:1,2012-02-06T12:30:00Z,27.8903,-94.0367,1022.71,11111222 
TABS,ioos:station:wmo:42046:1,2012-02-06T13:00:00Z,27.8903,-94.0367,1023.07,11111222 
TABS,ioos:station:wmo:42046:1,2012-02-06T13:30:00Z,27.8903,-94.0367,1022.97,11111222 
TABS,ioos:station:wmo:42046:1,2012-02-06T14:00:00Z,27.8903,-94.0367,1023.66,11111222 
TABS,ioos:station:wmo:42046:1,2012-02-06T14:30:00Z,27.8903,-94.0367,1023.94,11111222 
TABS,ioos:station:wmo:42046:1,2012-02-06T15:00:00Z,27.8903,-94.0367,1023.99,11111222 
TABS,ioos:station:wmo:42046:1,2012-02-06T15:30:00Z,27.8903,-94.0367,1024.39,11111222 
TABS,ioos:station:wmo:42046:1,2012-02-06T16:00:00Z,27.8903,-94.0367,1024.51,11111222 
TABS,ioos:station:wmo:42046:1,2012-02-06T16:30:00Z,27.8903,-94.0367,1024.39,11111222 
TABS,ioos:station:wmo:42046:1,2012-02-06T17:00:00Z,27.8903,-94.0367,1024.32,11111222 
TABS,ioos:station:wmo:42046:1,2012-02-06T17:30:00Z,27.8903,-94.0367,1023.85,11111222 
TABS,ioos:station:wmo:42046:1,2012-02-06T18:00:00Z,27.8903,-94.0367,1023.06,11111222 
TABS,ioos:station:wmo:42046:1,2012-02-06T18:30:00Z,27.8903,-94.0367,1022.97,11111222 